Location: Fields
(41.3684°N, 81.9976°W)
Time: 15:53:25
(UTC+00:00)

Daily predictions for brighter satellites

Satellite Brightness Start Highest point End
(mag) Time Altitude Azimuth Time Altitude Azimuth Time Altitude Azimuth
CZ-4B R/B 3.4 12:03:25 10° N 12:06:36 30° WNW 12:09:47 10° SW
ATLAS 5 CENTAUR R/B 2.7 12:04:36 10° W 12:07:33 20° NW 12:10:47 10° N
Cosmos 158 Rocket 4.3 12:03:22 10° NNW 12:08:20 49° WSW 12:13:26 10° S
Cosmos 923 Rocket 4.3 12:03:50 10° NNW 12:09:12 74° ENE 12:14:32 10° SSE
Cosmos 1340 Rocket 4.1 12:06:41 10° WSW 12:09:43 21° WNW 12:12:47 10° NNW
Cosmos 1697 Rocket 4.2 12:05:07 10° S 12:10:22 42° ESE 12:15:38 10° NE
Sich 1 3.4 22:20:25 10° N 22:24:32 43° ENE 22:28:40 10° SSE
Cosmos 1634 Rocket 4.2 22:20:14 10° SSE 22:26:22 56° E 22:32:33 10° NNE
Cosmos 2026 Rocket 4.0 22:23:09 10° N 22:29:10 57° E 22:35:06 10° SSE
Meteor 1-20 Rocket 4.4 22:24:47 10° N 22:30:40 87° W 22:36:30 10° S
ISS -3.5 22:27:28 10° NW 22:30:48 51° NNE 22:34:06 10° ESE
Cosmos 44 Rocket 4.4 22:27:32 10° N 22:31:31 24° NE 22:35:24 10° E
Cosmos 1898 Rocket 3.9 22:26:46 10° NNW 22:32:00 72° WSW 22:37:09 10° S
Cosmos 2195 Rocket 4.5 22:27:25 10° N 22:33:37 74° E 22:39:49 10° SSE
Cosmos 1809 Rocket 4.4 22:28:38 10° N 22:34:44 71° E 22:40:47 10° SSE
Cosmos 1812 3.3 22:31:31 10° SSE 22:35:02 36° E 22:38:35 10° NNE
Cosmos 1805 Rocket 3.5 22:30:47 10° N 22:35:08 76° E 22:39:28 10° SSE
NOAA 12 4.2 22:32:57 10° SSE 22:38:17 89° ENE 22:43:38 10° NNW
Cosmos 1818 4.2 22:40:25 10° NNW 22:45:22 33° NE 22:50:16 10° ESE
Cosmos 1933 4.1 22:42:16 10° SSW 22:46:14 54° W 22:50:12 10° N
Cosmos 1697 Rocket 3.4 22:42:04 10° NNW 22:47:34 58° WSW 22:53:04 10° S
Meteor 1-26 Rocket 4.4 22:43:05 10° S 22:49:03 89° ESE 22:55:09 10° N
Cosmos 2322 Rocket 3.6 22:45:22 10° N 22:49:11 18° NE 22:52:58 10° E
Cosmos 1980 Rocket 2.1 22:47:51 10° NNW 22:53:33 80° ENE 22:59:09 10° SSE
CZ-4B R/B 3.7 22:50:14 10° S 22:54:09 52° W 22:57:53 10° NNW
Cosmos 841 Rocket 4.0 22:50:55 10° SSW 22:56:00 59° WNW 23:01:06 10° NNE
CORIOLIS 4.1 22:51:49 10° SSE 22:57:12 77° ENE 23:02:38 10° N
Cosmos 1900 4.3 22:52:26 10° SSW 22:57:16 75° ESE 23:02:09 10° NE
Cosmos 921 Rocket 3.6 22:53:31 10° SSE 22:57:19 35° E 23:00:52 12° NE
APEX 4.1 22:53:58 10° S 22:57:22 27° ESE 22:59:14 17° ENE
Cosmos 2208 Rocket 4.1 22:55:17 10° S 23:00:35 63° ESE 23:05:59 10° NNE
Tiangong 3.6 23:01:55 10° SSE 23:02:52 11° SE 23:03:50 10° SE
COSMOS 2455 3.6 22:57:14 10° SW 23:03:04 51° NW 23:08:58 10° NNE
Cosmos 2369 4.2 22:57:42 10° NNW 23:03:24 67° WSW 23:09:02 10° SSE
USA 267 3.5 22:57:03 10° NE 23:03:32 66° NW 23:09:59 10° WSW
DEBRIS 4.0 23:03:01 10° S 23:04:51 19° ESE 23:05:58 16° E
Cosmos 372 Rocket 4.2 23:02:24 10° NNW 23:07:40 76° WSW 23:12:53 10° SSE
Cosmos 2082 Rocket 2.9 23:03:51 10° SW 23:09:25 55° WNW 23:14:59 10° NNE
SL-16 R/B 2.9 23:04:36 10° N 23:09:37 31° NE 23:14:37 10° ESE
H-2A R/B 2.0 23:05:29 10° SSE 23:10:33 61° ENE 23:15:30 10° N
ARGOS 3.6 23:07:49 10° SE 23:12:48 39° ENE 23:17:47 10° N
Meteor 1-5 Rocket 4.3 23:07:09 10° N 23:13:08 73° E 23:18:57 10° SSE
Cosmos 1500 4.0 23:10:08 10° NNW 23:13:46 51° W 23:17:22 10° S
COSMO-SKYMED 1 2.9 23:09:51 10° NNE 23:14:01 44° E 23:18:09 10° S
Cosmos 1151 Rocket 3.1 23:10:20 10° S 23:14:40 83° W 23:19:02 10° N
Cosmos 1125 Rocket 4.0 23:10:19 10° N 23:15:08 35° ENE 23:19:56 10° SE
Cosmos 1633 Rocket 2.9 23:11:27 10° N 23:15:51 72° E 23:20:13 10° SSE
Meteor 2-16 Rocket 4.4 23:14:23 10° N 23:20:33 85° E 23:26:41 10° S
Cosmos 1939 Rocket 4.4 23:18:18 10° SSW 23:22:09 39° W 23:25:59 10° NNW
X-37B 0.6 23:19:35 10° SW 23:22:23 53° SSE 23:23:02 41° ESE
SL-08 RB Rocket 4.4 23:20:18 10° SE 23:24:23 32° ENE 23:28:26 10° N
Landsat 5 3.9 23:23:02 26° NE 23:24:34 37° E 23:28:12 10° SSE
CZ-4B DEB 4.5 23:19:23 10° S 23:24:53 73° WSW 23:30:23 10° NNW
CZ-2D R/B 3.3 23:22:14 10° S 23:26:03 79° WSW 23:29:53 10° NNW
Cosmos 2278 3.8 23:20:28 10° NNW 23:26:12 79° WSW 23:31:51 10° SSE
USA 306 4.1 23:23:45 10° NNW 23:27:12 24° NNE 23:27:42 23° NNE
Cosmos 2333 Rocket 4.2 23:24:44 10° NNE 23:25:38 12° NNE 23:25:38 12° NNE
USA 234 3.2 23:28:57 10° ESE 23:35:28 73° NE 23:42:00 10° NW
Meteor 2-15 Rocket 4.4 23:30:23 10° S 23:36:23 61° E 23:42:23 10° NNE
CZ-2C R/B 2.4 23:31:24 10° NNE 23:36:36 79° ESE 23:41:46 10° S
SKYMED 3 4.4 23:34:12 12° NNE 23:38:11 83° ESE 23:42:31 10° S
NOSS 3-3 (A) 4.2 23:36:44 10° S 23:41:52 40° ESE 23:43:32 33° ENE
NOSS 3-3 (C) 4.2 23:36:50 10° S 23:41:59 40° ESE 23:43:37 33° E
Cosmos 1933 Rocket 3.6 23:38:03 10° N 23:42:16 48° E 23:46:27 10° SSE
Cosmos 1328 Rocket 4.1 23:38:02 10° SSW 23:42:24 58° W 23:46:48 10° N
Cosmos 1666 3.9 23:39:05 10° NNW 23:42:36 42° W 23:46:06 10° SSW
Okean O Rocket 1.5 23:42:23 10° SSE 23:46:49 76° ENE 23:51:17 10° N
USA 307 4.1 23:43:53 10° NW 23:47:06 27° NNE 23:47:06 27° NNE
Cosmos 1470 Rocket 3.5 23:43:46 10° N 23:48:16 87° W 23:52:44 10° S
CZ-4B R/B 3.2 23:46:41 10° S 23:52:05 79° WSW 23:57:27 10° NNW
CZ-4C R/B 4.1 23:54:58 32° S 23:54:58 32° S 23:56:59 10° S
ATLAS 5 CENTAUR R/B 2.9 23:51:16 10° NNW 23:54:52 30° N 23:54:52 30° N
